Date String (YYYY-MM-DD hh:mm:ss) UTC,Instrument flags,Ambient pressure (hPa),Sample flow (lpm),Bypass flow (lpm),Sample temperature (°C),Ambient temperature (°C),ASC tube jacket temperature (°C),LED temperature (°C),Box temperature (°C),Sample RH (%),Span deviation,Mass concentration (μg/m³),Mass concentration (μg/m³),Mass concentration (μg/m³)
DateTimeUTC,F1_M11,P_M11,Q1_M11,Q2_M11,T1_M11,T2_M11,T3_M11,T4_M11,T5_M11,U1_M11,ZSPAN_M11,X0_M11,X2_M11,X1_M11
2022-03-06 05:00:00,,0823.9,5.00,0.00,22.2,22.2,00.0,31.2,23.9,11.4,0000.0,0004.48,0003.63,0003.51
2022-03-06 05:01:00,,0823.9,5.01,0.00,22.1,21.9,00.0,31.2,23.8,11.4,0000.0,0004.52,0003.63,0003.50
2022-03-06 05:02:00,,0823.9,5.00,0.00,22.1,21.6,00.0,31.1,23.7,11.4,0000.0,0004.55,0003.64,0003.49
2022-03-06 05:03:00,,0823.9,4.99,0.00,22.0,21.3,00.0,31.1,23.6,11.5,0000.0,0004.57,0003.65,0003.49
2022-03-06 05:04:00,,0823.9,4.99,0.00,21.9,21.1,00.0,31.1,23.5,11.5,0000.0,0004.59,0003.65,0003.48
2022-03-06 05:05:00,,0823.9,5.01,0.00,21.9,21.0,00.0,31.0,23.4,11.5,0000.0,0004.67,0003.62,0003.45
2022-03-06 05:06:00,,0824.0,5.00,0.00,21.8,20.8,00.0,31.0,23.3,11.5,0000.0,0004.89,0003.60,0003.43
2022-03-06 05:07:00,,0824.0,5.01,0.00,21.7,20.7,00.0,31.0,23.2,11.5,0000.0,0004.91,0003.58,0003.42
2022-03-06 05:08:00,,0824.0,4.99,0.00,21.7,20.6,00.0,31.0,23.2,11.6,0000.0,0005.42,0003.57,0003.41
2022-03-06 05:09:00,,0824.0,5.00,0.00,21.6,20.6,00.0,30.9,23.1,11.6,0000.0,0005.44,0003.53,0003.38
2022-03-06 05:10:00,,0824.0,5.01,0.00,21.5,20.5,00.0,30.9,23.0,11.6,0000.0,0005.41,0003.51,0003.36
2022-03-06 05:11:00,,0824.0,4.99,0.00,21.5,20.5,00.0,30.8,23.0,11.6,0000.0,0005.33,0003.48,0003.34
2022-03-06 05:12:00,,0824.1,5.01,0.00,21.5,21.1,00.0,30.8,23.2,11.6,0000.0,0005.28,0003.46,0003.32
2022-03-06 05:13:00,,0824.1,5.01,0.00,21.7,22.0,00.0,30.9,23.5,11.5,0000.0,0005.27,0003.45,0003.30
2022-03-06 05:14:00,,0824.1,5.00,0.00,21.9,22.7,00.0,30.9,23.8,11.5,0000.0,0005.26,0003.42,0003.28
2022-03-06 05:15:00,,0824.1,4.99,0.00,21.9,22.4,00.0,30.9,23.8,11.5,0000.0,0005.82,0003.39,0003.24
2022-03-06 05:16:00,,0824.1,5.01,0.00,21.9,22.0,00.0,30.9,23.7,11.4,0000.0,0005.92,0003.38,0003.22
2022-03-06 05:17:00,,0824.1,5.00,0.00,21.9,21.8,00.0,30.9,23.5,11.4,0000.0,0005.63,0003.37,0003.21
2022-03-06 05:18:00,,0824.0,5.00,0.00,21.8,21.5,00.0,30.9,23.4,11.4,0000.0,0005.75,0003.36,0003.18
2022-03-06 05:19:00,,0824.0,5.00,0.00,21.8,21.2,00.0,30.9,23.4,11.4,0000.0,0005.61,0003.38,0003.18
2022-03-06 05:20:00,,0824.0,5.00,0.00,21.7,21.0,00.0,30.8,23.2,11.4,0000.0,0005.21,0003.35,0003.16
2022-03-06 05:21:00,,0824.0,5.00,0.00,21.6,20.9,00.0,30.8,23.1,11.4,0000.0,0005.17,0003.34,0003.16
2022-03-06 05:22:00,,0824.0,5.00,0.00,21.6,20.8,00.0,30.8,23.1,11.5,0000.0,0005.16,0003.32,0003.14
2022-03-06 05:23:00,,0824.0,5.00,0.00,21.5,20.8,00.0,30.8,23.0,11.6,0000.0,0005.27,0003.32,0003.14
2022-03-06 05:24:00,,0824.0,4.99,0.00,21.5,20.7,00.0,30.7,23.0,11.6,0000.0,0005.21,0003.29,0003.13
2022-03-06 05:25:00,,0824.0,5.01,0.00,21.4,20.7,00.0,30.7,23.0,11.7,0000.0,0005.19,0003.28,0003.12
2022-03-06 05:26:00,,0824.0,4.99,0.00,21.4,20.6,00.0,30.7,23.0,11.7,0000.0,0004.67,0003.28,0003.12
2022-03-06 05:27:00,,0824.0,4.99,0.00,21.4,20.8,00.0,30.7,23.0,11.7,0000.0,0004.50,0003.31,0003.12
2022-03-06 05:28:00,,0824.0,5.01,0.00,21.5,21.6,00.0,30.7,23.3,11.7,0000.0,0004.54,0003.32,0003.12
2022-03-06 05:29:00,,0824.1,5.00,0.00,21.7,22.5,00.0,30.7,23.6,11.6,0000.0,0004.41,0003.30,0003.12
2022-03-06 05:30:00,,0824.1,5.00,0.00,21.8,22.6,00.0,30.8,23.8,11.4,0000.0,0005.16,0003.27,0003.10
2022-03-06 05:31:00,,0824.0,4.99,0.00,21.8,22.3,00.0,30.8,23.6,11.4,0000.0,0005.16,0003.27,0003.09
2022-03-06 05:32:00,,0824.0,5.01,0.00,21.8,22.0,00.0,30.8,23.5,11.4,0000.0,0005.15,0003.27,0003.09
2022-03-06 05:33:00,,0824.1,5.01,0.00,21.8,21.7,00.0,30.8,23.4,11.5,0000.0,0005.09,0003.26,0003.09
2022-03-06 05:34:00,,0824.1,5.00,0.00,21.7,21.5,00.0,30.8,23.3,11.5,0000.0,0005.00,0003.27,0003.10
2022-03-06 05:35:00,,0824.1,5.00,0.00,21.7,21.3,00.0,30.8,23.2,11.5,0000.0,0005.08,0003.28,0003.11
2022-03-06 05:36:00,,0824.1,5.00,0.00,21.6,21.2,00.0,30.8,23.2,11.4,0000.0,0005.06,0003.28,0003.12
2022-03-06 05:37:00,,0824.1,5.00,0.00,21.6,21.1,00.0,30.7,23.1,11.4,0000.0,0005.02,0003.27,0003.12
2022-03-06 05:38:00,,0824.1,5.00,0.00,21.5,20.9,00.0,30.7,23.1,11.4,0000.0,0004.99,0003.26,0003.12
2022-03-06 05:39:00,,0824.1,4.99,0.00,21.5,20.8,00.0,30.7,23.0,11.5,0000.0,0005.00,0003.26,0003.12
2022-03-06 05:40:00,,0824.1,5.00,0.00,21.4,20.7,00.0,30.7,23.0,11.5,0000.0,0004.96,0003.25,0003.12
2022-03-06 05:41:00,,0824.1,5.01,0.00,21.4,20.7,00.0,30.6,23.0,11.6,0000.0,0004.02,0003.25,0003.13
2022-03-06 05:42:00,,0824.1,5.00,0.00,21.4,20.9,00.0,30.6,23.0,11.6,0000.0,0004.10,0003.30,0003.15
2022-03-06 05:43:00,,0824.1,4.99,0.00,21.6,21.8,00.0,30.7,23.3,11.5,0000.0,0004.27,0003.36,0003.20
2022-03-06 05:44:00,,0824.1,5.00,0.00,21.7,22.6,00.0,30.7,23.7,11.4,0000.0,0004.44,0003.44,0003.28
2022-03-06 05:45:00,,0824.1,5.01,0.00,21.8,22.6,00.0,30.7,23.8,11.3,0000.0,0004.65,0003.52,0003.35
2022-03-06 05:46:00,,0824.1,4.99,0.00,21.8,22.2,00.0,30.8,23.7,11.4,0000.0,0004.73,0003.58,0003.42
2022-03-06 05:47:00,,0824.1,5.00,0.00,21.8,21.8,00.0,30.7,23.5,11.4,0000.0,0005.02,0003.71,0003.54
2022-03-06 05:48:00,,0824.2,5.00,0.00,21.7,21.4,00.0,30.7,23.4,11.4,0000.0,0005.42,0003.89,0003.70
2022-03-06 05:49:00,,0824.2,5.01,0.00,21.7,21.1,00.0,30.7,23.2,11.5,0000.0,0006.06,0004.08,0003.89
2022-03-06 05:50:00,,0824.2,5.00,0.00,21.6,20.9,00.0,30.7,23.1,11.4,0000.0,0006.82,0004.27,0004.09
2022-03-06 05:51:00,,0824.2,4.99,0.00,21.5,20.7,00.0,30.7,23.0,11.4,0000.0,0007.31,0004.51,0004.31
2022-03-06 05:52:00,,0824.2,4.99,0.00,21.5,20.5,00.0,30.7,23.0,11.5,0000.0,0007.54,0004.74,0004.55
2022-03-06 05:53:00,,0824.2,5.01,0.00,21.4,20.4,00.0,30.6,22.9,11.5,0000.0,0007.70,0004.95,0004.78
2022-03-06 05:54:00,,0824.2,5.00,0.00,21.3,20.3,00.0,30.6,22.8,11.6,0000.0,0007.74,0005.02,0004.87
2022-03-06 05:55:00,,0824.2,5.01,0.00,21.3,20.4,00.0,30.6,22.8,11.6,0000.0,0007.90,0005.16,0004.98
2022-03-06 05:56:00,,0824.1,5.00,0.00,21.2,20.4,00.0,30.5,22.7,11.7,0000.0,0008.07,0005.33,0005.15
2022-03-06 05:57:00,,0824.1,5.01,0.00,21.2,20.7,00.0,30.5,22.8,11.6,0000.0,0008.32,0005.49,0005.30
2022-03-06 05:58:00,,0824.1,4.99,0.00,21.4,21.5,00.0,30.6,23.1,11.5,0000.0,0008.53,0005.57,0005.38
2022-03-06 05:59:00,,0824.1,5.02,0.00,21.5,22.4,00.0,30.6,23.5,11.4,0000.0,0008.58,0005.60,0005.41
